Weather Roundup
Issued by NWS Chicago, IL

Home | Current Version | Previous Version | Graphics & Text | Print | Product List | Glossary On
Versions: 1 2 3 4 5 6 7 8 9 10 11 12 13 14 15 16 17 18 19 20 21 22 23 24 25 26 27 28 29 30 31 32 33 34 35 36 37 38 39 40 41 42 43 44 45 46 47 48 49 50
915
NZUS59 KLOT 271903
HRRLOT

CHICAGO AREA WEATHER ROUNDUP
NATIONAL WEATHER SERVICE CHICAGO/ROMEOVILLE IL
200 PM CDT TUE JUN 27 2017

NOTE: "FAIR" INDICATES FEW OR NO CLOUDS BELOW 12,000 FEET WITH NO
SIGNIFICANT WEATHER AND/OR OBSTRUCTIONS TO VISIBILITY.

* THESE STATIONS ARE NOT UNDER NWS QUALITY CONTROL. THEY ALSO MAY NOT
  REPORT WEATHER SUCH AS PRECIPITATION OR FOG.

ILZ005-006-012>014-019>023-272000-
NORTHEAST ILLINOIS

CITY           SKY/WX    TMP DP  RH WIND       PRES   REMARKS
OHARE          MOSUNNY   76  43  30 VRB6      30.09F
MIDWAY         MOSUNNY   73  44  35 W6        30.09F
AURORA         MOSUNNY   74  44  34 NW8       30.10F
LANSING*       PTSUNNY   74  44  33 W6        30.11F
JOLIET*        MOSUNNY   76  46  33 W6        30.10F
WAUKEGAN       MOSUNNY   74  49  41 NW8       30.08F
DUPAGE AIRPORT SUNNY     73  44  35 MISG      30.08F
WHEELING       MOSUNNY   74  47  38 NW7       30.10F
MORRIS*        MOSUNNY   74  42  32 SW7       30.09F
LEWIS AIRPORT* MOSUNNY   75  41  29 N8        30.10F
$$

WIZ051-052-058>065-066-070>072-272000-
SOUTHEAST WISCONSIN

CITY           SKY/WX    TMP DP  RH WIND       PRES   REMARKS
MILWAUKEE      PTSUNNY   74  47  38 NW10      30.07F
KENOSHA*       PTSUNNY   71  47  42 W7        30.08F
RACINE*        PTSUNNY   71  46  40 VRB6      30.09F
WAUKESHA       PTSUNNY   70  46  43 W9        30.09F
$$

INZ001>003-010>013-019-020-272000-
NORTHWEST INDIANA

CITY           SKY/WX    TMP DP  RH WIND       PRES   REMARKS
GARY*          MOSUNNY   73  45  35 NE7       30.11F
MICHIGAN CITY* NOT AVBL
RENSSELAER*    NOT AVBL
VALPARAISO     MOSUNNY   74  46  36 VRB7      30.11F
$$

LMZ740>746-272000-
SOUTHERN LAKE MICHIGAN

STATION/POSITION TIME  SKY/WX   TEMP WIND        PRES    VSBY
                                AIR  DIR/SP/G
                 (UTC)          (F)  (DEG/KT/KT) (MB)    (MI)
HARRISON CRIB    1840            67  130/ 11/ 11   N/A
BURNHAM HARBOR   1900            66                N/A
CALUMET HARBOR   1830            67   70/  7/  9 1019.1F
BURNS HARBOR     1840            68   60/  7/  7 1020.3F
MICHIGAN CITY    1840            67   CALM  /  1   N/A
$$

ABBREVIATIONS USED IN REMARKS
   TC - TEMPERATURE IN CELSIUS
  WCI - WIND CHILL INDEX
   HX - HEAT INDEX
  VSB - VISIBILITY
$$




USA.gov is the U.S. government's official web portal to all federal, state and local government web resources and services.